Location: Gollag?dem
(16.8053°N, 80.8024°E)
Time: 17:26:17
(UTC+00:00)

NOSS 3-2 (A) - Pass Details

Date: 13 August 2020
Orbit: 796 x 1412 km, 63.4° (Epoch: 16 September)

Event Time Altitude Azimuth Distance (km) Brightness Sun altitude
Rises 13:57:58 0° 207° (SSW) 3,290 6.4 -13.4°
Reaches altitude 10° 14:00:21 10° 208° (SSW) 2,356 5.6 -13.9°
Maximum altitude 14:05:41 81° 294° (WNW) 825 3.2 -15.1°
Drops below altitude 10° 14:11:22 10° 22° (NNE) 2,500 5.6 -16.4°
Sets 14:13:58 0° 24° (NNE) 3,508 6.4 -17.0°
